Weather History for Glendive, MT

Change the Weather History Date:

Wednesday, March 7, 2012

  Actual Average Record
Temperature  
Mean Temperature 26 °F -  
Max Temperature 37 °F 29 °F 60 °F (2007)
Min Temperature 15 °F 11 °F -7 °F (2003)
Degree Days  
Heating Degree Days 39    
Moisture  
Dew Point 13 °F    
Average Humidity 59    
Maximum Humidity 79    
Minimum Humidity 38    
Precipitation  
Precipitation 0.00 in - - ()
Sea Level Pressure  
Sea Level Pressure 29.95 in    
Wind  
Wind Speed 14 mph (WNW)    
Max Wind Speed 26 mph    
Max Gust Speed 32 mph    
Visibility 10 miles    
Events      
Averages and records for this station are not official NWS values.
T = Trace of Precipitation, MM = Missing Value Source: NWS Daily Summary

Daily Weather History Graph

Daily Weather History Graph

Search for Another Location

Airport:

Trip Planner

Search our weather history database for the weather conditions in past years. The results will help you decide how hot, cold, wet, or windy it might be!

Date:

Astronomy

Mar. 07, 2012 Rise Set
Actual Time 6:26 AM MST 5:54 PM MST
Civil Twilight 5:56 AM MST 6:24 PM MST
Nautical Twilight 5:21 AM MST 7:00 PM MST
Astronomical Twilight 4:45 AM MST 7:35 PM MST
Moon 5:35 PM MST (3/7) 5:38 AM MST (3/7)
Length of Visible Light 12h 28m
Length of Day
11h 27m
Waxing Gibbous, 99% of the Moon is Illuminated
Mar 7
Waxing Gibbous
Mar 8
Full
Mar 14
Last Quarter
Mar 22
New
Mar 30
First Quarter

Hourly Weather History & Observations

Time (MST) Temp. Windchill Dew Point Humidity Pressure Visibility Wind Dir Wind Speed Gust Speed Precip Events Conditions
12:15 AM 23.0 °F 9.2 °F 15.8 °F 74% 29.90 in 10.0 mi NW 17.3 mph 25.3 mph N/A   Overcast
12:35 AM 23.0 °F 10.1 °F 15.8 °F 74% 29.91 in 10.0 mi NW 15.0 mph 20.7 mph N/A   Overcast
12:55 AM 21.2 °F 7.8 °F 12.2 °F 68% 29.92 in 10.0 mi NW 15.0 mph 19.6 mph N/A   Overcast
1:15 AM 21.2 °F 6.0 °F 12.2 °F 68% 29.92 in 10.0 mi NW 19.6 mph - N/A   Overcast
1:35 AM 21.2 °F 8.3 °F 14.0 °F 74% 29.92 in 10.0 mi WNW 13.8 mph 19.6 mph N/A   Overcast
1:55 AM 21.2 °F 6.0 °F 12.2 °F 68% 29.92 in 10.0 mi NW 19.6 mph - N/A   Overcast
2:15 AM 21.2 °F 7.3 °F 12.2 °F 68% 29.91 in 10.0 mi NW 16.1 mph 21.9 mph N/A   Overcast
2:35 AM 21.2 °F 6.0 °F 10.4 °F 63% 29.91 in 10.0 mi NW 19.6 mph - N/A   Overcast
2:55 AM 19.4 °F 6.6 °F 10.4 °F 68% 29.91 in 10.0 mi NW 12.7 mph - N/A   Overcast
3:15 AM 21.2 °F 8.3 °F 10.4 °F 63% 29.91 in 10.0 mi NW 13.8 mph - N/A   Overcast
3:35 AM 21.2 °F 9.5 °F 12.2 °F 68% 29.92 in 10.0 mi NW 11.5 mph - N/A   Overcast
3:55 AM 21.2 °F 7.8 °F 12.2 °F 68% 29.92 in 10.0 mi WNW 15.0 mph - N/A   Overcast
4:15 AM 21.2 °F 8.9 °F 12.2 °F 68% 29.93 in 10.0 mi NW 12.7 mph - N/A   Overcast
4:35 AM 19.4 °F 6.6 °F 10.4 °F 68% 29.93 in 10.0 mi NW 12.7 mph - N/A   Overcast
4:55 AM 19.4 °F 6.6 °F 10.4 °F 68% 29.95 in 10.0 mi WNW 12.7 mph - N/A   Overcast
5:15 AM 19.4 °F 7.2 °F 10.4 °F 68% 29.94 in 10.0 mi NW 11.5 mph - N/A   Overcast
5:35 AM 19.4 °F 7.2 °F 10.4 °F 68% 29.94 in 10.0 mi NW 11.5 mph - N/A   Overcast
5:55 AM 19.4 °F 6.6 °F 10.4 °F 68% 29.94 in 10.0 mi WNW 12.7 mph - N/A   Overcast
6:15 AM 17.6 °F 6.4 °F 10.4 °F 73% 29.95 in 10.0 mi WNW 9.2 mph - N/A   Overcast
6:35 AM 17.6 °F 6.4 °F 10.4 °F 73% 29.95 in 10.0 mi NW 9.2 mph - N/A   Mostly Cloudy
6:55 AM 15.8 °F 7.2 °F 10.4 °F 79% 29.96 in 10.0 mi WNW 5.8 mph - N/A   Partly Cloudy
7:15 AM 17.6 °F 9.3 °F 12.2 °F 79% 29.97 in 10.0 mi West 5.8 mph - N/A   Mostly Cloudy
7:35 AM 17.6 °F 8.2 °F 10.4 °F 73% 29.98 in 10.0 mi West 6.9 mph - N/A   Overcast
7:55 AM 19.4 °F 9.5 °F 12.2 °F 74% 29.97 in 10.0 mi WNW 8.1 mph - N/A   Overcast
8:15 AM 19.4 °F 7.9 °F 12.2 °F 74% 29.97 in 10.0 mi NW 10.4 mph - N/A   Overcast
8:35 AM 19.4 °F 10.4 °F 12.2 °F 74% 29.98 in 10.0 mi WNW 6.9 mph - N/A   Overcast
8:55 AM 21.2 °F 14.9 °F 12.2 °F 68% 29.97 in 10.0 mi NW 4.6 mph - N/A   Overcast
9:15 AM 21.2 °F 13.6 °F 12.2 °F 68% 29.97 in 10.0 mi WNW 5.8 mph - N/A   Mostly Cloudy
9:35 AM 24.8 °F 19.1 °F 12.2 °F 59% 29.97 in 10.0 mi WSW 4.6 mph - N/A   Partly Cloudy
9:55 AM 24.8 °F 19.1 °F 14.0 °F 64% 29.98 in 10.0 mi West 4.6 mph - N/A   Clear
10:15 AM 26.6 °F 18.2 °F 14.0 °F 59% 29.98 in 10.0 mi WSW 8.1 mph - N/A   Partly Cloudy
10:35 AM 26.6 °F 20.0 °F 14.0 °F 59% 29.97 in 10.0 mi WSW 5.8 mph - N/A   Clear
10:55 AM 30.2 °F 25.4 °F 14.0 °F 51% 29.96 in 10.0 mi WSW 4.6 mph - N/A   Clear
11:15 AM 30.2 °F 21.9 °F 15.8 °F 55% 29.96 in 10.0 mi SSW 9.2 mph - N/A   Clear
11:35 AM 32.0 °F 23.6 °F 15.8 °F 51% 29.95 in 10.0 mi WSW 10.4 mph - N/A   Clear
11:55 AM 33.8 °F 26.4 °F 14.0 °F 44% 29.95 in 10.0 mi SW 9.2 mph - N/A   Clear
12:15 PM 33.8 °F 25.8 °F 14.0 °F 44% 29.94 in 10.0 mi WSW 10.4 mph 21.9 mph N/A   Partly Cloudy
12:35 PM 33.8 °F 24.3 °F 14.0 °F 44% 29.94 in 10.0 mi WSW 13.8 mph 17.3 mph N/A   Clear
12:55 PM 33.8 °F 23.5 °F 15.8 °F 48% 29.93 in 10.0 mi WSW 16.1 mph 19.6 mph N/A   Partly Cloudy
1:15 PM 33.8 °F 24.3 °F 15.8 °F 48% 29.92 in 10.0 mi SW 13.8 mph - N/A   Mostly Cloudy
1:35 PM 35.6 °F 26.6 °F 15.8 °F 44% 29.92 in 10.0 mi WSW 13.8 mph - N/A   Overcast
1:55 PM 35.6 °F 24.8 °F 15.8 °F 44% 29.92 in 10.0 mi West 19.6 mph 25.3 mph N/A   Overcast
2:15 PM 35.6 °F 24.8 °F 15.8 °F 44% 29.92 in 10.0 mi West 19.6 mph - N/A   Mostly Cloudy
2:35 PM 37.4 °F 27.2 °F 15.8 °F 41% 29.92 in 10.0 mi West 19.6 mph 26.5 mph N/A   Overcast
2:55 PM 35.6 °F 25.2 °F 15.8 °F 44% 29.92 in 10.0 mi West 18.4 mph 23.0 mph N/A   Overcast
3:15 PM 37.4 °F 25.6 °F 17.6 °F 45% 29.93 in 10.0 mi WNW 26.5 mph 32.2 mph N/A   Mostly Cloudy
3:35 PM 37.4 °F 27.5 °F 15.8 °F 41% 29.93 in 10.0 mi WNW 18.4 mph 27.6 mph N/A   Overcast
3:55 PM 35.6 °F 24.5 °F 14.0 °F 41% 29.94 in 10.0 mi WNW 20.7 mph 25.3 mph N/A   Overcast
4:15 PM 33.8 °F 22.2 °F 17.6 °F 52% 29.95 in 10.0 mi West 20.7 mph 26.5 mph N/A   Mostly Cloudy
4:55 PM 33.8 °F 22.8 °F 10.4 °F 38% 29.97 in 10.0 mi WNW 18.4 mph 26.5 mph N/A   Partly Cloudy
5:15 PM 33.8 °F 23.9 °F 12.2 °F 41% 29.99 in 10.0 mi NW 15.0 mph 27.6 mph N/A   Mostly Cloudy
5:35 PM 33.8 °F 22.5 °F 14.0 °F 44% 30.00 in 10.0 mi WNW 19.6 mph 24.2 mph N/A   Overcast
5:55 PM 32.0 °F 22.5 °F 15.8 °F 51% 30.01 in 10.0 mi WNW 12.7 mph - N/A   Mostly Cloudy
6:15 PM 30.2 °F 20.2 °F 15.8 °F 55% 30.02 in 10.0 mi WNW 12.7 mph - N/A   Partly Cloudy
6:35 PM 30.2 °F 21.9 °F 14.0 °F 51% 30.03 in 10.0 mi WNW 9.2 mph - N/A   Scattered Clouds
6:55 PM 28.4 °F 19.1 °F 15.8 °F 59% 30.04 in 10.0 mi West 10.4 mph - N/A   Mostly Cloudy
7:35 PM 28.4 °F 20.4 °F 15.8 °F 59% 30.06 in 10.0 mi WSW 8.1 mph - N/A   Overcast
7:55 PM 26.6 °F 18.2 °F 15.8 °F 64% 30.06 in 10.0 mi West 8.1 mph - N/A   Mostly Cloudy
8:15 PM 28.4 °F 21.2 °F 17.6 °F 64% 30.06 in 10.0 mi WSW 6.9 mph - N/A   Overcast
8:35 PM 28.4 °F 21.2 °F 17.6 °F 64% 30.08 in 10.0 mi SW 6.9 mph - N/A   Overcast
8:55 PM 28.4 °F 21.2 °F 17.6 °F 64% 30.08 in 10.0 mi SW 6.9 mph - N/A   Overcast
9:15 PM 30.2 °F 21.9 °F 17.6 °F 60% 30.09 in 10.0 mi WSW 9.2 mph - N/A   Overcast
9:35 PM 32.0 °F 23.6 °F 17.6 °F 55% 30.10 in 10.0 mi West 10.4 mph - N/A   Overcast
9:55 PM 33.8 °F 23.9 °F 15.8 °F 48% 30.11 in 10.0 mi WNW 15.0 mph - N/A   Overcast
10:55 PM 33.8 °F 23.9 °F 17.6 °F 52% 30.13 in 10.0 mi WNW 15.0 mph - N/A   Overcast
11:15 PM 32.0 °F 21.6 °F 17.6 °F 55% 30.14 in 10.0 mi WNW 15.0 mph - N/A   Mostly Cloudy
11:35 PM 30.2 °F 20.2 °F 17.6 °F 60% 30.14 in 10.0 mi WNW 12.7 mph - N/A   Clear
11:55 PM 28.4 °F 19.7 °F 15.8 °F 59% 30.15 in 10.0 mi West 9.2 mph - N/A   Clear